Overview Statistics Trail Chart Weather Telemetry Raw packets
 

This is the latest recevied weather packets stored in our database for station/object N1ICS-1. If no packets are shown the sender has not sent any weather packets the latest 10 day(s).

<< 6 7 8 9 10 11 12 >>
Time Temp. Humidity Pressure Rain* Wind** Luminosity Snow
1788525602 22.78° C 99% 1017.5 hPa 0 mm - 137 W/m² -
1788525002 22.22° C 99% 1017.6 hPa 0 mm - 142 W/m² -
1788524702 22.22° C 99% 1017.5 hPa 0 mm - 124 W/m² -
1788524402 21.67° C 99% 1017.6 hPa 0 mm - 100 W/m² -
1788524101 21.67° C 99% 1017.6 hPa 0 mm - 94 W/m² -
1788523802 21.11° C 99% 1017.7 hPa 0 mm - 68 W/m² -
1788523502 21.11° C 99% 1017.5 hPa 0 mm - 56 W/m² -
1788523203 21.11° C 99% 1017.5 hPa 0 mm - 46 W/m² -
1788522901 21.11° C 99% 1017.6 hPa 0 mm - 36 W/m² -
1788522602 21.11° C 99% 1017.5 hPa 0 mm - 29 W/m² -
1788522001 21.11° C 99% 1017.2 hPa 0 mm - 20 W/m² -
1788521702 20.56° C 99% 1017.4 hPa 0 mm - 16 W/m² -
1788521102 20.56° C 99% 1017 hPa 0 mm - 11 W/m² -
1788520802 20.56° C 99% 1016.8 hPa 0 mm - 8 W/m² -
1788520502 20.56° C 99% 1016.9 hPa 0 mm - 5 W/m² -
1788519902 20.56° C 99% 1016.7 hPa 0 mm - 2 W/m² -
1788519302 20.56° C 99% 1016.7 hPa 0 mm - 0 W/m² -
1788519003 20.56° C 99% 1016.6 hPa 0 mm - 0 W/m² -
1788518702 20.56° C 99% 1016.5 hPa 0 mm - 0 W/m² -
1788518102 20° C 99% 1016.3 hPa 0 mm - 0 W/m² -
1788517802 20° C 99% 1016 hPa 0 mm - 0 W/m² -
1788517501 20° C 99% 1015.9 hPa 0 mm - 0 W/m² -
1788517202 20° C 99% 1015.7 hPa 0 mm - 0 W/m² -
1788516902 20° C 99% 1016 hPa 0 mm - 0 W/m² -
1788516603 20° C 99% 1015.7 hPa 0 mm - 0 W/m² -

* Rain latest hour (hover to see other rain measurements)
** Current wind speed in m/s (hover to see current wind gust speed)